Time,TemperatureF,DewpointF,PressureIn,WindDirection,WindDirectionDegrees,WindSpeedMPH,WindSpeedGustMPH,Humidity,HourlyPrecipIn,Conditions,Clouds,dailyrainin,SoftwareType,DateUTC
2014-01-12 00:12:00,35.0,26.0,29.72,South,180,2.0,10.0,70,0.00,,,0.01,,2014-01-12 06:12:00,
2014-01-12 00:22:00,36.0,27.0,29.71,SSW,203,2.0,7.0,69,0.00,,,0.01,,2014-01-12 06:22:00,
2014-01-12 00:43:00,36.0,27.0,29.69,SW,223,2.0,8.0,69,0.00,,,0.01,,2014-01-12 06:43:00,
2014-01-12 00:53:00,36.0,26.0,29.68,South,172,2.0,8.0,68,0.00,,,0.01,,2014-01-12 06:53:00,
2014-01-12 01:11:00,35.0,26.0,29.66,South,176,1.0,7.0,70,0.00,,,0.01,,2014-01-12 07:11:00,
2014-01-12 01:21:00,35.0,26.0,29.66,SSW,194,1.0,9.0,70,0.00,,,0.01,,2014-01-12 07:21:00,
2014-01-12 01:42:00,35.0,26.0,29.65,SSW,205,2.0,6.0,69,0.00,,,0.01,,2014-01-12 07:42:00,
2014-01-12 01:52:00,35.0,26.0,29.63,South,182,2.0,6.0,70,0.00,,,0.01,,2014-01-12 07:52:00,
2014-01-12 02:11:00,36.0,26.0,29.63,South,182,3.0,9.0,67,0.00,,,0.01,,2014-01-12 08:11:00,
2014-01-12 02:22:00,36.0,26.0,29.62,SSW,195,2.0,9.0,67,0.00,,,0.01,,2014-01-12 08:22:00,
2014-01-12 02:32:00,36.0,26.0,29.62,SSW,195,2.0,9.0,67,0.00,,,0.01,,2014-01-12 08:32:00,
2014-01-12 02:42:00,36.0,26.0,29.62,SSW,195,2.0,9.0,67,0.00,,,0.01,,2014-01-12 08:42:00,
2014-01-12 02:52:00,36.0,26.0,29.60,South,178,3.0,9.0,68,0.00,,,0.01,,2014-01-12 08:52:00,
2014-01-12 03:11:00,36.0,26.0,29.60,South,181,2.0,8.0,68,0.00,,,0.01,,2014-01-12 09:11:00,
2014-01-12 03:22:00,36.0,26.0,29.59,SSE,157,1.0,10.0,68,0.00,,,0.01,,2014-01-12 09:22:00,
2014-01-12 03:43:00,36.0,26.0,29.60,South,190,1.0,7.0,68,0.00,,,0.01,,2014-01-12 09:43:00,
2014-01-12 03:53:00,35.0,26.0,29.60,South,173,0.0,3.0,70,0.00,,,0.01,,2014-01-12 09:53:00,
2014-01-12 04:12:00,34.0,26.0,29.60,South,182,0.0,5.0,72,0.00,,,0.01,,2014-01-12 10:12:00,
2014-01-12 04:23:00,34.0,26.0,29.59,South,190,0.0,5.0,73,0.00,,,0.01,,2014-01-12 10:23:00,
2014-01-12 04:42:00,34.0,26.0,29.59,South,178,2.0,7.0,72,0.00,,,0.01,,2014-01-12 10:42:00,
2014-01-12 04:52:00,34.0,26.0,29.58,SSW,197,0.0,8.0,71,0.00,,,0.01,,2014-01-12 10:52:00,
2014-01-12 05:12:00,34.0,26.0,29.59,South,189,0.0,3.0,71,0.00,,,0.01,,2014-01-12 11:12:00,
2014-01-12 05:22:00,34.0,26.0,29.57,South,169,0.0,5.0,72,0.00,,,0.01,,2014-01-12 11:22:00,
2014-01-12 05:42:00,35.0,26.0,29.57,South,182,1.0,4.0,70,0.00,,,0.01,,2014-01-12 11:42:00,
2014-01-12 05:53:00,34.0,25.0,29.56,South,176,1.0,6.0,70,0.00,,,0.01,,2014-01-12 11:53:00,
2014-01-12 06:11:00,35.0,26.0,29.55,SSW,194,0.0,4.0,69,0.00,,,0.01,,2014-01-12 12:11:00,
2014-01-12 06:22:00,35.0,26.0,29.55,South,189,0.0,4.0,68,0.00,,,0.01,,2014-01-12 12:22:00,
2014-01-12 06:42:00,34.0,25.0,29.55,SSW,194,0.0,3.0,70,0.00,,,0.01,,2014-01-12 12:42:00,
2014-01-12 06:52:00,34.0,25.0,29.55,SSW,200,0.0,3.0,70,0.00,,,0.01,,2014-01-12 12:52:00,
2014-01-12 07:11:00,35.0,26.0,29.54,South,175,0.0,3.0,69,0.00,,,0.01,,2014-01-12 13:11:00,
2014-01-12 07:22:00,34.0,25.0,29.54,SSW,198,0.0,4.0,69,0.00,,,0.01,,2014-01-12 13:22:00,
2014-01-12 07:42:00,34.0,25.0,29.54,South,177,0.0,4.0,70,0.00,,,0.01,,2014-01-12 13:42:00,
2014-01-12 07:52:00,34.0,25.0,29.53,SSW,197,1.0,5.0,70,0.00,,,0.01,,2014-01-12 13:52:00,
2014-01-12 08:11:00,34.0,25.0,29.54,SSW,196,0.0,5.0,70,0.00,,,0.01,,2014-01-12 14:11:00,
2014-01-12 08:22:00,33.0,25.0,29.53,South,189,1.0,4.0,72,0.00,,,0.01,,2014-01-12 14:22:00,
2014-01-12 08:42:00,32.0,25.0,29.53,SSW,196,0.0,3.0,74,0.00,,,0.01,,2014-01-12 14:42:00,
2014-01-12 08:52:00,32.0,25.0,29.52,SSW,192,0.0,4.0,75,0.00,,,0.01,,2014-01-12 14:52:00,
2014-01-12 09:11:00,32.0,25.0,29.53,South,187,0.0,4.0,76,0.00,,,0.01,,2014-01-12 15:11:00,
2014-01-12 09:22:00,32.0,25.0,29.53,SSW,198,1.0,5.0,76,0.00,,,0.01,,2014-01-12 15:22:00,
2014-01-12 09:44:00,32.0,25.0,29.54,SW,222,0.0,4.0,76,0.00,,,0.01,,2014-01-12 15:44:00,
2014-01-12 09:53:00,33.0,26.0,29.54,South,181,0.0,4.0,75,0.00,,,0.01,,2014-01-12 15:53:00,
2014-01-12 10:13:00,34.0,27.0,29.54,South,185,0.0,3.0,74,0.00,,,0.01,,2014-01-12 16:13:00,
2014-01-12 10:23:00,35.0,27.0,29.54,South,184,0.0,2.0,73,0.00,,,0.01,,2014-01-12 16:23:00,
2014-01-12 10:43:00,36.0,28.0,29.54,South,187,1.0,4.0,72,0.00,,,0.01,,2014-01-12 16:43:00,
2014-01-12 10:52:00,37.0,28.0,29.54,South,177,0.0,3.0,70,0.00,,,0.00,,2014-01-12 16:52:00,
2014-01-12 11:12:00,39.0,29.0,29.56,SW,236,1.0,4.0,67,0.00,,,0.00,,2014-01-12 17:12:00,
2014-01-12 11:21:00,39.0,29.0,29.56,SW,236,1.0,4.0,67,0.00,,,0.00,,2014-01-12 17:21:00,
2014-01-12 11:42:00,41.0,30.0,29.54,WSW,245,0.0,3.0,64,0.00,,,0.00,,2014-01-12 17:42:00,
2014-01-12 11:52:00,44.0,31.0,29.54,WNW,298,0.0,3.0,61,0.00,,,0.00,,2014-01-12 17:52:00,
2014-01-12 12:12:00,47.0,32.0,29.52,West,262,2.0,6.0,56,0.00,,,0.00,,2014-01-12 18:12:00,
2014-01-12 12:22:00,49.0,34.0,29.52,WNW,291,0.0,2.0,55,0.00,,,0.00,,2014-01-12 18:22:00,
2014-01-12 12:42:00,52.0,33.0,29.51,West,263,2.0,5.0,49,0.00,,,0.00,,2014-01-12 18:42:00,
2014-01-12 12:52:00,52.0,33.0,29.50,NW,318,1.0,6.0,48,0.00,,,0.00,,2014-01-12 18:52:00,
2014-01-12 13:11:00,52.0,32.0,29.49,NNW,329,4.0,8.0,47,0.00,,,0.00,,2014-01-12 19:11:00,
2014-01-12 13:22:00,51.0,33.0,29.49,NW,314,4.0,10.0,49,0.00,,,0.00,,2014-01-12 19:22:00,
2014-01-12 13:43:00,51.0,34.0,29.48,NW,315,4.0,8.0,51,0.00,,,0.00,,2014-01-12 19:43:00,
2014-01-12 13:52:00,50.0,33.0,29.49,NNW,343,3.0,10.0,52,0.00,,,0.00,,2014-01-12 19:52:00,
2014-01-12 14:11:00,50.0,34.0,29.50,NNW,336,4.0,9.0,53,0.00,,,0.00,,2014-01-12 20:11:00,
2014-01-12 14:22:00,50.0,34.0,29.50,NW,307,5.0,10.0,54,0.00,,,0.00,,2014-01-12 20:22:00,
2014-01-12 14:42:00,50.0,34.0,29.51,North,355,2.0,9.0,55,0.00,,,0.00,,2014-01-12 20:42:00,
2014-01-12 14:52:00,49.0,34.0,29.51,NW,325,3.0,8.0,55,0.00,,,0.00,,2014-01-12 20:52:00,
2014-01-12 15:11:00,50.0,34.0,29.52,NNW,329,3.0,7.0,55,0.00,,,0.00,,2014-01-12 21:11:00,
2014-01-12 15:22:00,50.0,34.0,29.54,NNW,328,3.0,6.0,55,0.00,,,0.00,,2014-01-12 21:22:00,
2014-01-12 15:43:00,50.0,34.0,29.55,NW,318,4.0,7.0,55,0.00,,,0.00,,2014-01-12 21:43:00,
2014-01-12 15:53:00,50.0,34.0,29.56,NNW,328,3.0,6.0,55,0.00,,,0.00,,2014-01-12 21:53:00,
2014-01-12 16:12:00,49.0,34.0,29.57,NNW,334,0.0,7.0,57,0.00,,,0.00,,2014-01-12 22:12:00,
2014-01-12 16:23:00,49.0,34.0,29.57,NNW,339,2.0,5.0,57,0.00,,,0.00,,2014-01-12 22:23:00,
2014-01-12 16:42:00,49.0,35.0,29.58,NW,314,0.0,4.0,58,0.00,,,0.00,,2014-01-12 22:42:00,
2014-01-12 16:53:00,48.0,34.0,29.59,West,266,3.0,6.0,59,0.00,,,0.00,,2014-01-12 22:53:00,
2014-01-12 17:12:00,47.0,34.0,29.60,West,275,2.0,5.0,60,0.00,,,0.00,,2014-01-12 23:12:00,
2014-01-12 17:21:00,47.0,35.0,29.61,NNW,342,2.0,5.0,62,0.00,,,0.00,,2014-01-12 23:21:00,
2014-01-12 17:42:00,46.0,33.0,29.62,NW,312,3.0,7.0,60,0.00,,,0.00,,2014-01-12 23:42:00,
2014-01-12 17:52:00,46.0,33.0,29.62,NNW,332,3.0,6.0,61,0.00,,,0.00,,2014-01-12 23:52:00,
2014-01-12 18:11:00,45.0,32.0,29.63,NW,321,2.0,4.0,61,0.00,,,0.00,,2014-01-13 00:11:00,
2014-01-12 18:22:00,45.0,32.0,29.64,NNW,340,3.0,6.0,61,0.00,,,0.00,,2014-01-13 00:22:00,
2014-01-12 18:42:00,44.0,32.0,29.65,WNW,284,1.0,5.0,63,0.00,,,0.00,,2014-01-13 00:42:00,
2014-01-12 18:52:00,43.0,32.0,29.67,North,355,0.0,6.0,65,0.00,,,0.00,,2014-01-13 00:52:00,
2014-01-12 19:11:00,44.0,33.0,29.67,West,272,2.0,7.0,64,0.00,,,0.00,,2014-01-13 01:11:00,
2014-01-12 19:22:00,44.0,33.0,29.68,NW,323,4.0,11.0,64,0.00,,,0.00,,2014-01-13 01:22:00,
2014-01-12 19:42:00,46.0,35.0,29.67,NNW,347,5.0,9.0,65,0.00,,,0.00,,2014-01-13 01:42:00,
2014-01-12 19:52:00,46.0,34.0,29.67,North,360,3.0,8.0,63,0.00,,,0.00,,2014-01-13 01:52:00,
2014-01-12 20:11:00,45.0,34.0,29.67,NNE,19,2.0,5.0,66,0.00,,,0.00,,2014-01-13 02:11:00,
2014-01-12 20:22:00,44.0,34.0,29.68,NW,322,0.0,4.0,68,0.00,,,0.00,,2014-01-13 02:22:00,
2014-01-12 20:42:00,43.0,35.0,29.67,WSW,255,0.0,6.0,72,0.00,,,0.00,,2014-01-13 02:42:00,
2014-01-12 20:52:00,42.0,33.0,29.69,West,265,0.0,2.0,71,0.00,,,0.00,,2014-01-13 02:52:00,
2014-01-12 21:11:00,42.0,34.0,29.70,SW,221,0.0,1.0,72,0.00,,,0.00,,2014-01-13 03:11:00,
2014-01-12 21:22:00,41.0,33.0,29.72,WSW,242,0.0,3.0,72,0.00,,,0.00,,2014-01-13 03:22:00,
2014-01-12 21:43:00,41.0,32.0,29.71,WSW,242,0.0,0.0,71,0.00,,,0.00,,2014-01-13 03:43:00,
2014-01-12 21:53:00,41.0,33.0,29.72,WSW,242,0.0,0.0,72,0.00,,,0.00,,2014-01-13 03:53:00,
2014-01-12 22:13:00,40.0,32.0,29.71,WSW,242,0.0,0.0,72,0.00,,,0.00,,2014-01-13 04:13:00,
2014-01-12 22:23:00,40.0,32.0,29.71,WSW,242,0.0,0.0,72,0.00,,,0.00,,2014-01-13 04:23:00,
2014-01-12 22:43:00,39.0,31.0,29.72,WSW,242,0.0,0.0,73,0.00,,,0.00,,2014-01-13 04:43:00,
2014-01-12 22:52:00,39.0,31.0,29.72,WSW,242,0.0,1.0,73,0.00,,,0.00,,2014-01-13 04:52:00,
2014-01-12 23:12:00,38.0,31.0,29.71,WSW,242,0.0,0.0,75,0.00,,,0.00,,2014-01-13 05:12:00,
2014-01-12 23:22:00,39.0,30.0,29.71,West,260,0.0,4.0,71,0.00,,,0.00,,2014-01-13 05:22:00,
2014-01-12 23:43:00,40.0,30.0,29.72,West,259,2.0,6.0,68,0.00,,,0.00,,2014-01-13 05:43:00,
2014-01-12 23:53:00,40.0,29.0,29.73,West,277,3.0,6.0,65,0.00,,,0.00,,2014-01-13 05:53:00,